Time,TemperatureF,DewpointF,PressureIn,WindDirection,WindDirectionDegrees,WindSpeedMPH,WindSpeedGustMPH,Humidity,HourlyPrecipIn,Conditions,Clouds,dailyrainin,SoftwareType,DateUTC
2013-02-20 00:04:00,30.9,19.4,30.17,WNW,293,0.0,1.0,62,0.00,,,0.00,Wunderground v.1.13,2013-02-20 05:04:00,
2013-02-20 00:14:00,30.9,19.4,30.17,WNW,293,0.0,1.0,62,0.00,,,0.00,Wunderground v.1.13,2013-02-20 05:14:00,
2013-02-20 00:24:00,30.9,19.4,30.17,WNW,293,0.0,1.0,62,0.00,,,0.00,Wunderground v.1.13,2013-02-20 05:24:00,
2013-02-20 00:34:00,30.9,19.4,30.17,WNW,293,0.0,1.0,62,0.00,,,0.00,Wunderground v.1.13,2013-02-20 05:34:00,
2013-02-20 00:44:00,30.9,19.4,30.17,WNW,293,0.0,1.0,62,0.00,,,0.00,Wunderground v.1.13,2013-02-20 05:44:00,
2013-02-20 00:54:00,31.4,18.3,30.17,WNW,293,0.0,1.0,58,0.00,,,0.00,Wunderground v.1.13,2013-02-20 05:54:00,
2013-02-20 01:04:00,31.4,18.3,30.17,WNW,293,0.0,1.0,58,0.00,,,0.00,Wunderground v.1.13,2013-02-20 06:04:00,
2013-02-20 01:14:00,31.4,18.3,30.17,WNW,293,0.0,1.0,58,0.00,,,0.00,Wunderground v.1.13,2013-02-20 06:14:00,
2013-02-20 01:24:00,31.2,16.9,30.16,WNW,293,0.0,3.0,55,0.00,,,0.00,Wunderground v.1.13,2013-02-20 06:24:00,
2013-02-20 01:34:00,31.2,16.9,30.16,WNW,293,0.0,3.0,55,0.00,,,0.00,Wunderground v.1.13,2013-02-20 06:34:00,
2013-02-20 01:44:00,31.2,16.9,30.16,WNW,293,0.0,3.0,55,0.00,,,0.00,Wunderground v.1.13,2013-02-20 06:44:00,
2013-02-20 01:54:00,29.9,18.1,30.17,NNW,338,0.0,1.0,61,0.00,,,0.00,Wunderground v.1.13,2013-02-20 06:54:00,
2013-02-20 02:04:00,29.9,18.1,30.17,NNW,338,0.0,1.0,61,0.00,,,0.00,Wunderground v.1.13,2013-02-20 07:04:00,
2013-02-20 02:14:00,29.9,18.1,30.17,NNW,338,0.0,1.0,61,0.00,,,0.00,Wunderground v.1.13,2013-02-20 07:14:00,
2013-02-20 02:24:00,29.4,17.2,30.16,NNW,338,0.0,1.0,60,0.00,,,0.00,Wunderground v.1.13,2013-02-20 07:24:00,
2013-02-20 02:34:00,29.4,17.2,30.16,NNW,338,0.0,1.0,60,0.00,,,0.00,Wunderground v.1.13,2013-02-20 07:34:00,
2013-02-20 02:44:00,29.4,17.2,30.16,NNW,338,0.0,1.0,60,0.00,,,0.00,Wunderground v.1.13,2013-02-20 07:44:00,
2013-02-20 02:54:00,29.4,16.8,30.16,NW,315,0.0,1.0,59,0.00,,,0.00,Wunderground v.1.13,2013-02-20 07:54:00,
2013-02-20 03:04:00,29.4,16.8,30.16,NW,315,0.0,1.0,59,0.00,,,0.00,Wunderground v.1.13,2013-02-20 08:04:00,
2013-02-20 03:14:00,29.4,16.8,30.16,NW,315,0.0,1.0,59,0.00,,,0.00,Wunderground v.1.13,2013-02-20 08:14:00,
2013-02-20 03:24:00,29.7,17.1,30.17,NW,315,0.0,1.0,59,0.00,,,0.00,Wunderground v.1.13,2013-02-20 08:24:00,
2013-02-20 03:34:00,29.7,17.1,30.17,NW,315,0.0,1.0,59,0.00,,,0.00,Wunderground v.1.13,2013-02-20 08:34:00,
2013-02-20 03:54:00,30.2,16.0,30.16,NW,315,0.0,1.0,55,0.00,,,0.00,Wunderground v.1.13,2013-02-20 08:54:00,
2013-02-20 04:04:00,30.2,16.0,30.16,NW,315,0.0,1.0,55,0.00,,,0.00,Wunderground v.1.13,2013-02-20 09:04:00,
2013-02-20 04:34:00,29.3,16.7,30.17,N/A,-737280,0.0,0.0,59,0.00,,,0.00,Wunderground v.1.13,2013-02-20 09:34:00,
2013-02-20 04:54:00,29.3,17.9,30.17,N/A,-737280,0.0,0.0,62,0.00,,,0.00,Wunderground v.1.13,2013-02-20 09:54:00,
2013-02-20 05:04:00,29.3,17.9,30.17,N/A,-737280,0.0,0.0,62,0.00,,,0.00,Wunderground v.1.13,2013-02-20 10:04:00,
2013-02-20 05:14:00,29.3,17.9,30.17,N/A,-737280,0.0,0.0,62,0.00,,,0.00,Wunderground v.1.13,2013-02-20 10:14:00,
2013-02-20 05:24:00,29.0,17.6,30.18,N/A,-737280,0.0,0.0,62,0.00,,,0.00,Wunderground v.1.13,2013-02-20 10:24:00,
2013-02-20 05:34:00,29.0,17.6,30.18,N/A,-737280,0.0,0.0,62,0.00,,,0.00,Wunderground v.1.13,2013-02-20 10:34:00,
2013-02-20 05:44:00,29.0,17.6,30.18,N/A,-737280,0.0,0.0,62,0.00,,,0.00,Wunderground v.1.13,2013-02-20 10:44:00,
2013-02-20 05:54:00,27.8,17.6,30.19,N/A,-737280,0.0,0.0,65,0.00,,,0.00,Wunderground v.1.13,2013-02-20 10:54:00,
2013-02-20 06:04:00,27.8,17.6,30.19,N/A,-737280,0.0,0.0,65,0.00,,,0.00,Wunderground v.1.13,2013-02-20 11:04:00,
2013-02-20 06:14:00,27.8,17.6,30.19,N/A,-737280,0.0,0.0,65,0.00,,,0.00,Wunderground v.1.13,2013-02-20 11:14:00,
2013-02-20 06:24:00,27.7,17.5,30.20,N/A,-737280,0.0,0.0,65,0.00,,,0.00,Wunderground v.1.13,2013-02-20 11:24:00,
2013-02-20 06:34:00,27.7,17.5,30.20,N/A,-737280,0.0,0.0,65,0.00,,,0.00,Wunderground v.1.13,2013-02-20 11:34:00,
2013-02-20 06:44:00,27.7,17.5,30.20,N/A,-737280,0.0,0.0,65,0.00,,,0.00,Wunderground v.1.13,2013-02-20 11:44:00,
2013-02-20 06:54:00,27.1,17.6,30.20,N/A,-737280,0.0,0.0,67,0.00,,,0.00,Wunderground v.1.13,2013-02-20 11:54:00,
2013-02-20 07:04:00,27.1,17.6,30.20,N/A,-737280,0.0,0.0,67,0.00,,,0.00,Wunderground v.1.13,2013-02-20 12:04:00,
2013-02-20 07:14:00,27.1,17.6,30.20,N/A,-737280,0.0,0.0,67,0.00,,,0.00,Wunderground v.1.13,2013-02-20 12:14:00,
2013-02-20 07:24:00,26.3,17.5,30.21,N/A,-737280,0.0,0.0,69,0.00,,,0.00,Wunderground v.1.13,2013-02-20 12:24:00,
2013-02-20 07:34:00,26.3,17.5,30.21,N/A,-737280,0.0,0.0,69,0.00,,,0.00,Wunderground v.1.13,2013-02-20 12:34:00,
2013-02-20 07:54:00,28.0,18.1,30.22,NW,315,0.0,1.0,66,0.00,,,0.00,Wunderground v.1.13,2013-02-20 12:54:00,
2013-02-20 08:04:00,28.0,18.1,30.22,NW,315,0.0,1.0,66,0.00,,,0.00,Wunderground v.1.13,2013-02-20 13:04:00,
2013-02-20 08:14:00,28.0,18.1,30.22,NW,315,0.0,1.0,66,0.00,,,0.00,Wunderground v.1.13,2013-02-20 13:14:00,
2013-02-20 08:24:00,30.5,17.9,30.22,SW,225,0.0,2.0,59,0.00,,,0.00,Wunderground v.1.13,2013-02-20 13:24:00,
2013-02-20 08:34:00,30.5,17.9,30.22,SW,225,0.0,2.0,59,0.00,,,0.00,Wunderground v.1.13,2013-02-20 13:34:00,
2013-02-20 08:44:00,30.5,17.9,30.22,SW,225,0.0,2.0,59,0.00,,,0.00,Wunderground v.1.13,2013-02-20 13:44:00,
2013-02-20 08:54:00,32.3,18.8,30.23,WNW,293,0.0,3.0,57,0.00,,,0.00,Wunderground v.1.13,2013-02-20 13:54:00,
2013-02-20 09:04:00,32.3,18.8,30.23,WNW,293,0.0,3.0,57,0.00,,,0.00,Wunderground v.1.13,2013-02-20 14:04:00,
2013-02-20 09:14:00,32.3,18.8,30.23,WNW,293,0.0,3.0,57,0.00,,,0.00,Wunderground v.1.13,2013-02-20 14:14:00,
2013-02-20 09:24:00,33.7,17.5,30.23,SW,225,0.0,4.0,51,0.00,,,0.00,Wunderground v.1.13,2013-02-20 14:24:00,
2013-02-20 09:34:00,33.7,17.5,30.23,SW,225,0.0,4.0,51,0.00,,,0.00,Wunderground v.1.13,2013-02-20 14:34:00,
2013-02-20 09:44:00,33.7,17.5,30.23,SW,225,0.0,4.0,51,0.00,,,0.00,Wunderground v.1.13,2013-02-20 14:44:00,
2013-02-20 09:54:00,35.1,17.8,30.23,WNW,293,0.0,4.0,49,0.00,,,0.00,Wunderground v.1.13,2013-02-20 14:54:00,
2013-02-20 10:04:00,35.1,17.8,30.23,WNW,293,0.0,4.0,49,0.00,,,0.00,Wunderground v.1.13,2013-02-20 15:04:00,
2013-02-20 10:14:00,35.1,17.8,30.23,WNW,293,0.0,4.0,49,0.00,,,0.00,Wunderground v.1.13,2013-02-20 15:14:00,
2013-02-20 10:24:00,36.4,19.0,30.23,WNW,293,1.0,5.0,49,0.00,,,0.00,Wunderground v.1.13,2013-02-20 15:24:00,
2013-02-20 10:34:00,36.4,19.0,30.23,WNW,293,1.0,5.0,49,0.00,,,0.00,Wunderground v.1.13,2013-02-20 15:34:00,
2013-02-20 10:44:00,36.4,19.0,30.23,WNW,293,1.0,5.0,49,0.00,,,0.00,Wunderground v.1.13,2013-02-20 15:44:00,
2013-02-20 10:54:00,38.2,18.7,30.23,NW,315,0.0,4.0,45,0.00,,,0.00,Wunderground v.1.13,2013-02-20 15:54:00,
2013-02-20 11:04:00,38.2,18.7,30.23,NW,315,0.0,4.0,45,0.00,,,0.00,Wunderground v.1.13,2013-02-20 16:04:00,
2013-02-20 11:14:00,38.2,18.7,30.23,NW,315,0.0,4.0,45,0.00,,,0.00,Wunderground v.1.13,2013-02-20 16:14:00,
2013-02-20 11:24:00,39.1,16.2,30.23,West,270,1.0,6.0,39,0.00,,,0.00,Wunderground v.1.13,2013-02-20 16:24:00,
2013-02-20 11:34:00,39.1,16.2,30.23,West,270,1.0,6.0,39,0.00,,,0.00,Wunderground v.1.13,2013-02-20 16:34:00,
2013-02-20 11:44:00,39.1,16.2,30.23,West,270,1.0,6.0,39,0.00,,,0.00,Wunderground v.1.13,2013-02-20 16:44:00,
2013-02-20 11:54:00,40.2,8.8,30.21,WNW,293,1.0,7.0,27,0.00,,,0.00,Wunderground v.1.13,2013-02-20 16:54:00,
2013-02-20 12:04:00,40.2,8.8,30.21,WNW,293,1.0,7.0,27,0.00,,,0.00,Wunderground v.1.13,2013-02-20 17:04:00,
2013-02-20 12:14:00,40.2,8.8,30.21,WNW,293,1.0,7.0,27,0.00,,,0.00,Wunderground v.1.13,2013-02-20 17:14:00,
2013-02-20 12:24:00,40.8,10.2,30.20,WNW,293,1.0,6.0,28,0.00,,,0.00,Wunderground v.1.13,2013-02-20 17:24:00,
2013-02-20 12:34:00,40.8,10.2,30.20,WNW,293,1.0,6.0,28,0.00,,,0.00,Wunderground v.1.13,2013-02-20 17:34:00,
2013-02-20 12:44:00,40.8,10.2,30.20,WNW,293,1.0,6.0,28,0.00,,,0.00,Wunderground v.1.13,2013-02-20 17:44:00,
2013-02-20 12:54:00,41.0,8.7,30.19,WNW,293,1.0,6.0,26,0.00,,,0.00,Wunderground v.1.13,2013-02-20 17:54:00,
2013-02-20 13:04:00,41.0,8.7,30.19,WNW,293,1.0,6.0,26,0.00,,,0.00,Wunderground v.1.13,2013-02-20 18:04:00,
2013-02-20 13:14:00,41.0,8.7,30.19,WNW,293,1.0,6.0,26,0.00,,,0.00,Wunderground v.1.13,2013-02-20 18:14:00,
2013-02-20 13:24:00,41.7,9.3,30.18,NW,315,1.0,5.0,26,0.00,,,0.00,Wunderground v.1.13,2013-02-20 18:24:00,
2013-02-20 13:34:00,41.7,9.3,30.18,NW,315,1.0,5.0,26,0.00,,,0.00,Wunderground v.1.13,2013-02-20 18:34:00,
2013-02-20 13:44:00,41.7,9.3,30.18,NW,315,1.0,5.0,26,0.00,,,0.00,Wunderground v.1.13,2013-02-20 18:44:00,
2013-02-20 13:54:00,42.1,8.7,30.17,West,270,1.0,7.0,25,0.00,,,0.00,Wunderground v.1.13,2013-02-20 18:54:00,
2013-02-20 14:04:00,42.1,8.7,30.17,West,270,1.0,7.0,25,0.00,,,0.00,Wunderground v.1.13,2013-02-20 19:04:00,
2013-02-20 14:24:00,41.8,6.6,30.17,West,270,1.0,4.0,23,0.00,,,0.00,Wunderground v.1.13,2013-02-20 19:24:00,
2013-02-20 14:34:00,41.8,6.6,30.17,West,270,1.0,4.0,23,0.00,,,0.00,Wunderground v.1.13,2013-02-20 19:34:00,
2013-02-20 15:04:00,42.2,7.9,30.17,WNW,293,1.0,4.0,24,0.00,,,0.00,Wunderground v.1.13,2013-02-20 20:04:00,
2013-02-20 15:14:00,42.2,7.9,30.17,WNW,293,1.0,4.0,24,0.00,,,0.00,Wunderground v.1.13,2013-02-20 20:14:00,
2013-02-20 15:24:00,41.4,8.1,30.17,NW,315,1.0,5.0,25,0.00,,,0.00,Wunderground v.1.13,2013-02-20 20:24:00,
2013-02-20 15:34:00,41.4,8.1,30.17,NW,315,1.0,5.0,25,0.00,,,0.00,Wunderground v.1.13,2013-02-20 20:34:00,
2013-02-20 15:44:00,41.4,8.1,30.17,NW,315,1.0,5.0,25,0.00,,,0.00,Wunderground v.1.13,2013-02-20 20:44:00,
2013-02-20 15:54:00,40.7,9.3,30.18,West,270,0.0,3.0,27,0.00,,,0.00,Wunderground v.1.13,2013-02-20 20:54:00,
2013-02-20 16:04:00,40.7,9.3,30.18,West,270,0.0,3.0,27,0.00,,,0.00,Wunderground v.1.13,2013-02-20 21:04:00,
2013-02-20 16:14:00,40.7,9.3,30.18,West,270,0.0,3.0,27,0.00,,,0.00,Wunderground v.1.13,2013-02-20 21:14:00,
2013-02-20 16:24:00,40.2,9.6,30.20,WNW,293,0.0,4.0,28,0.00,,,0.00,Wunderground v.1.13,2013-02-20 21:24:00,
2013-02-20 16:34:00,40.2,9.6,30.20,WNW,293,0.0,4.0,28,0.00,,,0.00,Wunderground v.1.13,2013-02-20 21:34:00,
2013-02-20 16:44:00,40.2,9.6,30.20,WNW,293,0.0,4.0,28,0.00,,,0.00,Wunderground v.1.13,2013-02-20 21:44:00,
2013-02-20 16:54:00,40.1,9.6,30.21,NW,315,0.0,3.0,28,0.00,,,0.00,Wunderground v.1.13,2013-02-20 21:54:00,
2013-02-20 17:04:00,40.1,9.6,30.21,NW,315,0.0,3.0,28,0.00,,,0.00,Wunderground v.1.13,2013-02-20 22:04:00,
2013-02-20 17:14:00,40.1,9.6,30.21,NW,315,0.0,3.0,28,0.00,,,0.00,Wunderground v.1.13,2013-02-20 22:14:00,
2013-02-20 17:24:00,39.2,9.6,30.20,SSE,158,0.0,3.0,29,0.00,,,0.00,Wunderground v.1.13,2013-02-20 22:24:00,
2013-02-20 17:34:00,39.2,9.6,30.20,SSE,158,0.0,3.0,29,0.00,,,0.00,Wunderground v.1.13,2013-02-20 22:34:00,
2013-02-20 17:44:00,39.2,9.6,30.20,SSE,158,0.0,3.0,29,0.00,,,0.00,Wunderground v.1.13,2013-02-20 22:44:00,
2013-02-20 17:54:00,38.1,12.2,30.19,N/A,-737280,0.0,0.0,34,0.00,,,0.00,Wunderground v.1.13,2013-02-20 22:54:00,
2013-02-20 18:04:00,38.1,12.2,30.19,N/A,-737280,0.0,0.0,34,0.00,,,0.00,Wunderground v.1.13,2013-02-20 23:04:00,
2013-02-20 18:14:00,38.1,12.2,30.19,N/A,-737280,0.0,0.0,34,0.00,,,0.00,Wunderground v.1.13,2013-02-20 23:14:00,
2013-02-20 18:24:00,36.7,14.6,30.21,N/A,-737280,0.0,0.0,40,0.00,,,0.00,Wunderground v.1.13,2013-02-20 23:24:00,
2013-02-20 18:34:00,36.7,14.6,30.21,N/A,-737280,0.0,0.0,40,0.00,,,0.00,Wunderground v.1.13,2013-02-20 23:34:00,
2013-02-20 18:44:00,36.7,14.6,30.21,N/A,-737280,0.0,0.0,40,0.00,,,0.00,Wunderground v.1.13,2013-02-20 23:44:00,
2013-02-20 18:54:00,36.2,13.6,30.21,NE,45,0.0,1.0,39,0.00,,,0.00,Wunderground v.1.13,2013-02-20 23:54:00,
2013-02-20 19:04:00,36.2,13.6,30.21,NE,45,0.0,1.0,39,0.00,,,0.00,Wunderground v.1.13,2013-02-21 00:04:00,
2013-02-20 19:14:00,36.2,13.6,30.21,NE,45,0.0,1.0,39,0.00,,,0.00,Wunderground v.1.13,2013-02-21 00:14:00,
2013-02-20 19:24:00,34.2,14.5,30.21,N/A,-737280,0.0,0.0,44,0.00,,,0.00,Wunderground v.1.13,2013-02-21 00:24:00,
2013-02-20 19:34:00,34.2,14.5,30.21,N/A,-737280,0.0,0.0,44,0.00,,,0.00,Wunderground v.1.13,2013-02-21 00:34:00,
2013-02-20 19:44:00,34.2,14.5,30.21,N/A,-737280,0.0,0.0,44,0.00,,,0.00,Wunderground v.1.13,2013-02-21 00:44:00,
2013-02-20 19:54:00,33.3,13.7,30.22,NE,45,0.0,1.0,44,0.00,,,0.00,Wunderground v.1.13,2013-02-21 00:54:00,
2013-02-20 20:04:00,33.3,13.7,30.22,NE,45,0.0,1.0,44,0.00,,,0.00,Wunderground v.1.13,2013-02-21 01:04:00,
2013-02-20 20:14:00,33.3,13.7,30.22,NE,45,0.0,1.0,44,0.00,,,0.00,Wunderground v.1.13,2013-02-21 01:14:00,
2013-02-20 20:24:00,32.4,14.4,30.22,N/A,-737280,0.0,0.0,47,0.00,,,0.00,Wunderground v.1.13,2013-02-21 01:24:00,
2013-02-20 20:34:00,32.4,14.4,30.22,N/A,-737280,0.0,0.0,47,0.00,,,0.00,Wunderground v.1.13,2013-02-21 01:34:00,
2013-02-20 20:44:00,32.4,14.4,30.22,N/A,-737280,0.0,0.0,47,0.00,,,0.00,Wunderground v.1.13,2013-02-21 01:44:00,
2013-02-20 20:54:00,31.4,14.4,30.23,N/A,-737280,0.0,0.0,49,0.00,,,0.00,Wunderground v.1.13,2013-02-21 01:54:00,
2013-02-20 21:04:00,31.4,14.4,30.23,N/A,-737280,0.0,0.0,49,0.00,,,0.00,Wunderground v.1.13,2013-02-21 02:04:00,
2013-02-20 21:14:00,31.4,14.4,30.23,N/A,-737280,0.0,0.0,49,0.00,,,0.00,Wunderground v.1.13,2013-02-21 02:14:00,
2013-02-20 21:24:00,30.2,13.8,30.21,N/A,-737280,0.0,0.0,50,0.00,,,0.00,Wunderground v.1.13,2013-02-21 02:24:00,
2013-02-20 21:34:00,30.2,13.8,30.21,N/A,-737280,0.0,0.0,50,0.00,,,0.00,Wunderground v.1.13,2013-02-21 02:34:00,
2013-02-20 21:44:00,30.2,13.8,30.21,N/A,-737280,0.0,0.0,50,0.00,,,0.00,Wunderground v.1.13,2013-02-21 02:44:00,
2013-02-20 21:54:00,29.7,14.6,30.21,NE,45,0.0,1.0,53,0.00,,,0.00,Wunderground v.1.13,2013-02-21 02:54:00,
2013-02-20 22:04:00,29.7,14.6,30.21,NE,45,0.0,1.0,53,0.00,,,0.00,Wunderground v.1.13,2013-02-21 03:04:00,
2013-02-20 22:14:00,29.7,14.6,30.21,NE,45,0.0,1.0,53,0.00,,,0.00,Wunderground v.1.13,2013-02-21 03:14:00,
2013-02-20 22:24:00,29.4,14.8,30.21,N/A,-737280,0.0,0.0,54,0.00,,,0.00,Wunderground v.1.13,2013-02-21 03:24:00,
2013-02-20 22:34:00,29.4,14.8,30.21,N/A,-737280,0.0,0.0,54,0.00,,,0.00,Wunderground v.1.13,2013-02-21 03:34:00,
2013-02-20 22:44:00,29.4,14.8,30.21,N/A,-737280,0.0,0.0,54,0.00,,,0.00,Wunderground v.1.13,2013-02-21 03:44:00,
2013-02-20 22:54:00,29.2,16.6,30.20,N/A,-737280,0.0,0.0,59,0.00,,,0.00,Wunderground v.1.13,2013-02-21 03:54:00,
2013-02-20 23:04:00,29.2,16.6,30.20,N/A,-737280,0.0,0.0,59,0.00,,,0.00,Wunderground v.1.13,2013-02-21 04:04:00,
2013-02-20 23:14:00,29.2,16.6,30.20,N/A,-737280,0.0,0.0,59,0.00,,,0.00,Wunderground v.1.13,2013-02-21 04:14:00,
2013-02-20 23:24:00,28.3,16.9,30.20,N/A,-737280,0.0,0.0,62,0.00,,,0.00,Wunderground v.1.13,2013-02-21 04:24:00,
2013-02-20 23:34:00,28.3,16.9,30.20,N/A,-737280,0.0,0.0,62,0.00,,,0.00,Wunderground v.1.13,2013-02-21 04:34:00,
2013-02-20 23:44:00,28.3,16.9,30.20,N/A,-737280,0.0,0.0,62,0.00,,,0.00,Wunderground v.1.13,2013-02-21 04:44:00,
2013-02-20 23:54:00,27.2,17.3,30.18,N/A,-737280,0.0,0.0,66,0.00,,,0.00,Wunderground v.1.13,2013-02-21 04:54:00,